Time,TemperatureF,DewpointF,PressureIn,WindDirection,WindDirectionDegrees,WindSpeedMPH,WindSpeedGustMPH,Humidity,HourlyPrecipIn,Conditions,Clouds,dailyrainin,SoftwareType,DateUTC
2013-05-15 00:03:00,44.0,33.0,30.02,NW,326,0.0,0.0,64,0.00,,,0.00,,2013-05-15 04:03:00,
2013-05-15 00:12:00,44.0,33.0,30.02,NW,326,0.0,0.0,64,0.00,,,0.00,,2013-05-15 04:12:00,
2013-05-15 00:24:00,43.0,32.0,30.03,NW,326,0.0,0.0,66,0.00,,,0.00,,2013-05-15 04:24:00,
2013-05-15 00:33:00,43.0,32.0,30.03,NW,326,0.0,0.0,65,0.00,,,0.00,,2013-05-15 04:33:00,
2013-05-15 00:42:00,43.0,32.0,30.03,NW,326,0.0,0.0,65,0.00,,,0.00,,2013-05-15 04:42:00,
2013-05-15 00:52:00,43.0,32.0,30.03,NW,326,0.0,0.0,64,0.00,,,0.00,,2013-05-15 04:52:00,
2013-05-15 01:02:00,43.0,33.0,30.03,NW,326,0.0,0.0,67,0.00,,,0.00,,2013-05-15 05:02:00,
2013-05-15 01:12:00,42.0,32.0,30.02,NNW,327,0.0,0.0,68,0.00,,,0.00,,2013-05-15 05:12:00,
2013-05-15 01:22:00,42.0,32.0,30.02,NNW,327,0.0,0.0,68,0.00,,,0.00,,2013-05-15 05:22:00,
2013-05-15 01:32:00,41.0,32.0,30.02,NW,326,0.0,0.0,71,0.00,,,0.00,,2013-05-15 05:32:00,
2013-05-15 01:42:00,41.0,32.0,30.02,NW,326,0.0,0.0,71,0.00,,,0.00,,2013-05-15 05:42:00,
2013-05-15 01:52:00,41.0,33.0,30.01,NW,326,0.0,0.0,73,0.00,,,0.00,,2013-05-15 05:52:00,
2013-05-15 02:02:00,41.0,33.0,30.01,NW,326,0.0,0.0,72,0.00,,,0.00,,2013-05-15 06:02:00,
2013-05-15 02:11:00,41.0,33.0,30.01,NW,326,0.0,0.0,72,0.00,,,0.00,,2013-05-15 06:11:00,
2013-05-15 02:21:00,41.0,33.0,30.01,NW,326,0.0,0.0,73,0.00,,,0.00,,2013-05-15 06:21:00,
2013-05-15 02:32:00,41.0,33.0,30.01,NW,326,0.0,0.0,73,0.00,,,0.00,,2013-05-15 06:32:00,
2013-05-15 02:42:00,42.0,34.0,30.00,NNW,327,0.0,0.0,74,0.00,,,0.00,,2013-05-15 06:42:00,
2013-05-15 02:52:00,42.0,34.0,30.00,NNW,327,0.0,0.0,74,0.00,,,0.00,,2013-05-15 06:52:00,
2013-05-15 03:01:00,42.0,34.0,30.00,NW,326,0.0,0.0,74,0.00,,,0.00,,2013-05-15 07:01:00,
2013-05-15 03:11:00,42.0,34.0,30.00,NW,326,0.0,0.0,74,0.00,,,0.00,,2013-05-15 07:11:00,
2013-05-15 03:22:00,42.0,35.0,30.00,NW,326,0.0,0.0,75,0.00,,,0.00,,2013-05-15 07:22:00,
2013-05-15 03:32:00,43.0,35.0,30.00,NNW,327,0.0,0.0,74,0.00,,,0.00,,2013-05-15 07:32:00,
2013-05-15 03:41:00,43.0,35.0,30.00,NNW,327,0.0,0.0,74,0.00,,,0.00,,2013-05-15 07:41:00,
2013-05-15 03:52:00,43.0,35.0,30.00,NW,326,0.0,0.0,73,0.00,,,0.00,,2013-05-15 07:52:00,
2013-05-15 04:02:00,44.0,36.0,30.00,NNW,327,0.0,0.0,74,0.00,,,0.00,,2013-05-15 08:02:00,
2013-05-15 04:12:00,44.0,36.0,30.00,NNW,327,0.0,0.0,74,0.00,,,0.00,,2013-05-15 08:12:00,
2013-05-15 04:21:00,44.0,35.0,30.00,NW,326,0.0,0.0,70,0.00,,,0.00,,2013-05-15 08:21:00,
2013-05-15 04:32:00,44.0,35.0,29.99,NW,326,0.0,0.0,70,0.00,,,0.00,,2013-05-15 08:32:00,
2013-05-15 04:42:00,44.0,36.0,30.00,NW,326,0.0,0.0,72,0.00,,,0.00,,2013-05-15 08:42:00,
2013-05-15 04:53:00,44.0,36.0,30.00,NW,326,0.0,0.0,72,0.00,,,0.00,,2013-05-15 08:53:00,
2013-05-15 05:01:00,44.0,36.0,29.99,NW,326,0.0,0.0,73,0.00,,,0.00,,2013-05-15 09:01:00,
2013-05-15 05:11:00,45.0,36.0,29.98,NNW,327,0.0,0.0,71,0.00,,,0.00,,2013-05-15 09:11:00,
2013-05-15 05:21:00,45.0,36.0,29.98,NNW,327,0.0,0.0,71,0.00,,,0.00,,2013-05-15 09:21:00,
2013-05-15 05:33:00,45.0,37.0,29.97,NNW,327,0.0,1.0,73,0.00,,,0.00,,2013-05-15 09:33:00,
2013-05-15 05:42:00,45.0,37.0,29.97,NNW,327,0.0,1.0,73,0.00,,,0.00,,2013-05-15 09:42:00,
2013-05-15 05:53:00,45.0,37.0,29.98,NW,326,0.0,0.0,72,0.00,,,0.00,,2013-05-15 09:53:00,
2013-05-15 06:02:00,45.0,36.0,29.98,NNW,327,0.0,0.0,71,0.00,,,0.00,,2013-05-15 10:02:00,
2013-05-15 06:13:00,45.0,36.0,29.98,NNW,327,0.0,0.0,71,0.00,,,0.00,,2013-05-15 10:13:00,
2013-05-15 06:22:00,45.0,37.0,29.98,NW,326,0.0,0.0,72,0.00,,,0.00,,2013-05-15 10:22:00,
2013-05-15 06:32:00,46.0,38.0,29.98,NW,326,0.0,0.0,73,0.00,,,0.00,,2013-05-15 10:32:00,
2013-05-15 06:42:00,46.0,37.0,29.98,NW,326,0.0,0.0,72,0.00,,,0.00,,2013-05-15 10:42:00,
2013-05-15 06:52:00,46.0,37.0,29.98,NW,326,0.0,0.0,72,0.00,,,0.00,,2013-05-15 10:52:00,
2013-05-15 07:11:00,46.0,36.0,29.97,NNW,327,0.0,0.0,67,0.00,,,0.00,,2013-05-15 11:11:00,
2013-05-15 07:18:00,47.0,37.0,29.98,NNW,327,0.0,1.0,67,0.00,,,0.00,,2013-05-15 11:18:00,
2013-05-15 07:27:00,47.0,37.0,29.98,NNW,327,0.0,1.0,67,0.00,,,0.00,,2013-05-15 11:27:00,
2013-05-15 07:38:00,48.0,36.0,29.96,NW,326,0.0,3.0,63,0.00,,,0.00,,2013-05-15 11:38:00,
2013-05-15 07:47:00,49.0,37.0,29.97,SSE,155,0.0,6.0,63,0.00,,,0.00,,2013-05-15 11:47:00,
2013-05-15 08:09:00,50.0,39.0,29.97,East,101,2.0,4.0,66,0.00,,,0.00,,2013-05-15 12:09:00,
2013-05-15 08:15:00,51.0,40.0,29.96,SW,234,4.0,7.0,67,0.00,,,0.00,,2013-05-15 12:15:00,
2013-05-15 08:29:00,51.0,40.0,29.96,SW,234,4.0,7.0,67,0.00,,,0.00,,2013-05-15 12:29:00,
2013-05-15 08:36:00,52.0,42.0,29.96,South,186,1.0,7.0,68,0.00,,,0.00,,2013-05-15 12:36:00,
2013-05-15 08:47:00,52.0,42.0,29.96,South,186,1.0,7.0,68,0.00,,,0.00,,2013-05-15 12:47:00,
2013-05-15 08:57:00,53.0,42.0,29.95,SSE,167,1.0,9.0,67,0.00,,,0.00,,2013-05-15 12:57:00,
2013-05-15 09:09:00,54.0,43.0,29.95,SSE,158,1.0,9.0,65,0.00,,,0.00,,2013-05-15 13:09:00,
2013-05-15 09:26:00,55.0,43.0,29.93,South,187,2.0,9.0,64,0.00,,,0.00,,2013-05-15 13:26:00,
2013-05-15 09:36:00,56.0,43.0,29.93,South,185,2.0,12.0,61,0.00,,,0.00,,2013-05-15 13:36:00,
2013-05-15 09:46:00,56.0,43.0,29.93,South,185,2.0,12.0,61,0.00,,,0.00,,2013-05-15 13:46:00,
2013-05-15 09:59:00,57.0,42.0,29.92,SSE,150,4.0,13.0,57,0.00,,,0.00,,2013-05-15 13:59:00,
2013-05-15 10:06:00,57.0,42.0,29.91,West,278,2.0,16.0,57,0.00,,,0.00,,2013-05-15 14:06:00,
2013-05-15 10:14:00,57.0,42.0,29.92,SSW,192,4.0,13.0,57,0.00,,,0.00,,2013-05-15 14:14:00,
2013-05-15 10:27:00,57.0,42.0,29.92,SSW,192,4.0,13.0,57,0.00,,,0.00,,2013-05-15 14:27:00,
2013-05-15 10:37:00,57.0,43.0,29.91,South,180,2.0,7.0,59,0.00,,,0.00,,2013-05-15 14:37:00,
2013-05-15 10:47:00,57.0,43.0,29.91,South,180,2.0,7.0,59,0.00,,,0.00,,2013-05-15 14:47:00,
2013-05-15 10:59:00,57.0,43.0,29.91,WSW,242,1.0,9.0,60,0.00,,,0.00,,2013-05-15 14:59:00,
2013-05-15 11:08:00,57.0,43.0,29.92,SSE,152,0.0,5.0,60,0.00,,,0.00,,2013-05-15 15:08:00,
2013-05-15 11:16:00,57.0,44.0,29.92,South,186,2.0,6.0,61,0.00,,,0.00,,2013-05-15 15:16:00,
2013-05-15 11:28:00,57.0,44.0,29.92,South,186,2.0,6.0,61,0.00,,,0.00,,2013-05-15 15:28:00,
2013-05-15 11:38:00,57.0,44.0,29.92,SW,223,1.0,7.0,62,0.00,,,0.00,,2013-05-15 15:38:00,
2013-05-15 11:47:00,57.0,44.0,29.92,SW,223,1.0,7.0,62,0.00,,,0.00,,2013-05-15 15:47:00,
2013-05-15 12:02:00,57.0,46.0,29.88,South,178,0.0,10.0,66,0.00,,,0.00,,2013-05-15 16:02:00,
2013-05-15 12:10:00,57.0,47.0,29.88,ESE,118,2.0,7.0,68,0.00,,,0.00,,2013-05-15 16:10:00,
2013-05-15 12:22:00,57.0,46.0,29.88,SSE,156,0.0,5.0,67,0.00,,,0.00,,2013-05-15 16:22:00,
2013-05-15 12:28:00,57.0,46.0,29.88,SSE,156,0.0,5.0,67,0.00,,,0.00,,2013-05-15 16:28:00,
2013-05-15 12:36:00,57.0,46.0,29.88,South,182,4.0,7.0,67,0.00,,,0.00,,2013-05-15 16:36:00,
2013-05-15 12:47:00,57.0,46.0,29.88,South,182,4.0,7.0,67,0.00,,,0.00,,2013-05-15 16:47:00,
2013-05-15 13:00:00,60.0,47.0,29.85,South,189,2.0,10.0,61,0.00,,,0.00,,2013-05-15 17:00:00,
2013-05-15 13:10:00,61.0,46.0,29.83,SW,232,4.0,7.0,58,0.00,,,0.00,,2013-05-15 17:10:00,
2013-05-15 13:21:00,61.0,46.0,29.83,SW,232,4.0,7.0,58,0.00,,,0.00,,2013-05-15 17:21:00,
2013-05-15 13:27:00,62.0,47.0,29.84,SW,214,5.0,18.0,57,0.00,,,0.00,,2013-05-15 17:27:00,
2013-05-15 13:38:00,63.0,48.0,29.83,SSE,163,3.0,14.0,57,0.00,,,0.00,,2013-05-15 17:38:00,
2013-05-15 13:46:00,63.0,48.0,29.83,SSE,163,3.0,14.0,57,0.00,,,0.00,,2013-05-15 17:46:00,
2013-05-15 13:59:00,64.0,48.0,29.83,NW,311,3.0,12.0,56,0.00,,,0.00,,2013-05-15 17:59:00,
2013-05-15 14:16:00,62.0,52.0,29.83,SSE,160,0.0,5.0,69,0.02,,,0.02,,2013-05-15 18:16:00,
2013-05-15 14:27:00,62.0,52.0,29.83,SSE,160,0.0,5.0,69,0.02,,,0.02,,2013-05-15 18:27:00,
2013-05-15 14:46:00,61.0,53.0,29.83,SSE,160,0.0,5.0,74,0.02,,,0.02,,2013-05-15 18:46:00,
2013-05-15 14:57:00,62.0,52.0,29.82,South,191,1.0,7.0,69,0.02,,,0.02,,2013-05-15 18:57:00,
2013-05-15 15:09:00,63.0,51.0,29.76,South,171,1.0,12.0,66,0.00,,,0.02,,2013-05-15 19:09:00,
2013-05-15 15:15:00,63.0,51.0,29.76,South,171,1.0,12.0,66,0.00,,,0.02,,2013-05-15 19:15:00,
2013-05-15 15:30:00,64.0,51.0,29.74,SSE,165,4.0,16.0,62,0.00,,,0.02,,2013-05-15 19:30:00,
2013-05-15 15:45:00,64.0,51.0,29.73,WSW,258,4.0,11.0,62,0.00,,,0.02,,2013-05-15 19:45:00,
2013-05-15 15:57:00,66.0,52.0,29.72,SW,219,4.0,12.0,61,0.00,,,0.02,,2013-05-15 19:57:00,
2013-05-15 16:08:00,67.0,53.0,29.70,West,264,7.0,16.0,60,0.00,,,0.02,,2013-05-15 20:08:00,
2013-05-15 16:18:00,67.0,53.0,29.70,West,264,7.0,16.0,60,0.00,,,0.02,,2013-05-15 20:18:00,
2013-05-15 16:29:00,68.0,53.0,29.70,WSW,256,6.0,14.0,59,0.00,,,0.02,,2013-05-15 20:29:00,
2013-05-15 16:38:00,69.0,54.0,29.69,SW,236,2.0,13.0,59,0.00,,,0.02,,2013-05-15 20:38:00,
2013-05-15 16:46:00,69.0,54.0,29.69,SW,236,2.0,13.0,59,0.00,,,0.02,,2013-05-15 20:46:00,
2013-05-15 16:53:00,69.0,55.0,29.69,NW,305,7.0,14.0,60,0.00,,,0.02,,2013-05-15 20:53:00,
2013-05-15 17:09:00,70.0,55.0,29.69,SW,227,10.0,14.0,59,0.00,,,0.02,,2013-05-15 21:09:00,
2013-05-15 17:19:00,70.0,55.0,29.69,SW,227,10.0,14.0,59,0.00,,,0.02,,2013-05-15 21:19:00,
2013-05-15 17:28:00,70.0,55.0,29.69,NW,318,1.0,15.0,60,0.00,,,0.02,,2013-05-15 21:28:00,
2013-05-15 17:40:00,70.0,55.0,29.69,WNW,293,5.0,10.0,59,0.00,,,0.02,,2013-05-15 21:40:00,
2013-05-15 17:50:00,70.0,55.0,29.69,WNW,293,5.0,10.0,59,0.00,,,0.02,,2013-05-15 21:50:00,
2013-05-15 18:00:00,71.0,56.0,29.68,West,281,4.0,12.0,59,0.00,,,0.02,,2013-05-15 22:00:00,
2013-05-15 18:18:00,71.0,56.0,29.68,SW,219,2.0,10.0,59,0.00,,,0.02,,2013-05-15 22:18:00,
2013-05-15 18:48:00,71.0,56.0,29.66,WNW,284,5.0,13.0,60,0.00,,,0.02,,2013-05-15 22:48:00,
2013-05-15 18:59:00,71.0,56.0,29.66,WNW,294,3.0,11.0,60,0.00,,,0.02,,2013-05-15 22:59:00,
2013-05-15 19:07:00,71.0,57.0,29.66,WSW,255,2.0,10.0,61,0.00,,,0.02,,2013-05-15 23:07:00,
2013-05-15 19:15:00,71.0,57.0,29.66,WSW,255,2.0,10.0,61,0.00,,,0.02,,2013-05-15 23:15:00,
2013-05-15 19:28:00,70.0,56.0,29.66,West,265,3.0,12.0,62,0.00,,,0.02,,2013-05-15 23:28:00,
2013-05-15 19:38:00,69.0,56.0,29.65,WNW,291,2.0,10.0,64,0.00,,,0.02,,2013-05-15 23:38:00,
2013-05-15 19:49:00,69.0,56.0,29.65,WNW,291,2.0,10.0,64,0.00,,,0.02,,2013-05-15 23:49:00,
2013-05-15 20:01:00,69.0,58.0,29.65,West,265,2.0,15.0,67,0.00,,,0.02,,2013-05-16 00:01:00,
2013-05-15 20:06:00,68.0,57.0,29.66,West,277,1.0,9.0,68,0.00,,,0.02,,2013-05-16 00:06:00,
2013-05-15 20:17:00,68.0,57.0,29.66,West,277,1.0,9.0,68,0.00,,,0.02,,2013-05-16 00:17:00,
2013-05-15 20:27:00,67.0,57.0,29.66,SSW,198,1.0,5.0,70,0.00,,,0.02,,2013-05-16 00:27:00,
2013-05-15 20:35:00,66.0,57.0,29.66,NW,313,2.0,7.0,72,0.00,,,0.02,,2013-05-16 00:35:00,
2013-05-15 20:49:00,66.0,57.0,29.66,West,276,0.0,7.0,73,0.00,,,0.02,,2013-05-16 00:49:00,
2013-05-15 20:58:00,66.0,57.0,29.66,West,276,0.0,7.0,73,0.00,,,0.02,,2013-05-16 00:58:00,
2013-05-15 21:07:00,66.0,57.0,29.66,WSW,251,0.0,5.0,73,0.00,,,0.02,,2013-05-16 01:07:00,
2013-05-15 21:17:00,64.0,56.0,29.67,WSW,255,0.0,1.0,76,0.00,,,0.02,,2013-05-16 01:17:00,
2013-05-15 21:48:00,64.0,57.0,29.68,WSW,255,0.0,4.0,78,0.00,,,0.02,,2013-05-16 01:48:00,
2013-05-15 22:01:00,64.0,57.0,29.68,WNW,291,0.0,7.0,77,0.00,,,0.02,,2013-05-16 02:01:00,
2013-05-15 22:07:00,64.0,57.0,29.67,West,281,0.0,3.0,77,0.00,,,0.02,,2013-05-16 02:07:00,
2013-05-15 22:17:00,64.0,57.0,29.67,West,281,0.0,3.0,77,0.00,,,0.02,,2013-05-16 02:17:00,
2013-05-15 22:28:00,65.0,56.0,29.72,SW,234,2.0,4.0,74,0.00,,,0.02,,2013-05-16 02:28:00,
2013-05-15 22:39:00,65.0,58.0,29.71,NNE,18,0.0,6.0,78,0.00,,,0.02,,2013-05-16 02:39:00,
2013-05-15 22:46:00,65.0,58.0,29.71,NNE,18,0.0,6.0,78,0.00,,,0.02,,2013-05-16 02:46:00,
2013-05-15 22:55:00,65.0,58.0,29.71,NNE,18,0.0,6.0,78,0.00,,,0.02,,2013-05-16 02:55:00,
2013-05-15 23:07:00,63.0,58.0,29.70,NNE,16,0.0,1.0,83,0.00,,,0.02,,2013-05-16 03:07:00,
2013-05-15 23:16:00,63.0,58.0,29.70,NNE,16,0.0,1.0,83,0.00,,,0.02,,2013-05-16 03:16:00,
2013-05-15 23:25:00,61.0,57.0,29.71,NNE,16,0.0,1.0,86,0.00,,,0.02,,2013-05-16 03:25:00,
2013-05-15 23:37:00,60.0,56.0,29.71,NNE,16,0.0,1.0,88,0.00,,,0.02,,2013-05-16 03:37:00,
2013-05-15 23:45:00,60.0,56.0,29.71,NNE,16,0.0,1.0,88,0.00,,,0.02,,2013-05-16 03:45:00,
2013-05-15 23:57:00,59.0,56.0,29.71,NNE,16,0.0,1.0,89,0.00,,,0.02,,2013-05-16 03:57:00,